ARG1737 SARE-SABE

Flight info

Callsign ARG1737
Flight time 1h 11m
Altitude 36000
Route KILIP2C KILIP UL793 GUA UZ129 PAGON PAGON8Q
Aircraft E190/M-SDE3GILORVW/S

Departure

Time 2026-04-17 00:13
Airport Resistencia International Airport (SARE)

Arrival

Time 2026-04-17 01:25
Airport Aeroparque Jorge Newbery (SABE)
Time Latitude Longitude Altitude Speed Heading
2026-04-16 23:58 -27.44549 -59.04939 188 ft 0 kts 180°
2026-04-17 00:04 -27.44541 -59.04939 200 ft 3 kts 180°
2026-04-17 00:04 -27.44522 -59.04939 200 ft 3 kts 180°
2026-04-17 00:04 -27.44507 -59.04939 201 ft 0 kts 180°
2026-04-17 00:06 -27.44510 -59.04940 202 ft 1 kts 182°
2026-04-17 00:06 -27.44523 -59.04949 195 ft 3 kts 223°
2026-04-17 00:07 -27.44534 -59.04977 190 ft 5 kts 249°
2026-04-17 00:07 -27.44547 -59.05022 198 ft 7 kts 255°
2026-04-17 00:07 -27.44567 -59.05082 202 ft 9 kts 245°
2026-04-17 00:07 -27.44601 -59.05152 193 ft 11 kts 239°
2026-04-17 00:08 -27.44648 -59.05232 194 ft 13 kts 234°
2026-04-17 00:08 -27.44703 -59.05321 193 ft 15 kts 236°
2026-04-17 00:08 -27.44742 -59.05427 199 ft 15 kts 289°
2026-04-17 00:08 -27.44648 -59.05457 190 ft 15 kts 15°
2026-04-17 00:09 -27.44544 -59.05414 195 ft 17 kts 20°
2026-04-17 00:09 -27.44427 -59.05365 192 ft 19 kts 20°
2026-04-17 00:09 -27.44302 -59.05312 191 ft 19 kts 21°
2026-04-17 00:09 -27.44193 -59.05264 192 ft 17 kts 21°
2026-04-17 00:10 -27.44115 -59.05230 196 ft 11 kts 21°
2026-04-17 00:10 -27.44058 -59.05205 188 ft 9 kts 21°
2026-04-17 00:10 -27.44004 -59.05182 203 ft 0 kts 21°
2026-04-17 00:10 -27.44001 -59.05180 202 ft 1 kts 21°
2026-04-17 00:11 -27.43991 -59.05176 195 ft 2 kts 21°
2026-04-17 00:11 -27.43977 -59.05169 199 ft 4 kts 22°
2026-04-17 00:11 -27.43949 -59.05157 195 ft 5 kts 22°
2026-04-17 00:11 -27.43914 -59.05141 189 ft 6 kts 22°
2026-04-17 00:12 -27.43894 -59.05105 204 ft 7 kts 55°
2026-04-17 00:12 -27.43851 -59.05088 198 ft 7 kts 330°
2026-04-17 00:12 -27.43867 -59.05123 194 ft 6 kts 207°
2026-04-17 00:12 -27.43970 -59.05169 197 ft 32 kts 200°
2026-04-17 00:13 -27.44369 -59.05340 186 ft 94 kts 200°
2026-04-17 00:13 -27.45164 -59.05682 189 ft 149 kts 200°
2026-04-17 00:13 -27.46252 -59.06143 411 ft 182 kts 201°
2026-04-17 00:13 -27.47504 -59.06668 879 ft 197 kts 201°
2026-04-17 00:14 -27.48765 -59.07209 1064 ft 208 kts 201°
2026-04-17 00:14 -27.50157 -59.07807 1751 ft 221 kts 201°
2026-04-17 00:14 -27.51608 -59.08432 2634 ft 225 kts 201°
2026-04-17 00:14 -27.53093 -59.09070 3513 ft 232 kts 201°
2026-04-17 00:15 -27.54674 -59.09751 4090 ft 260 kts 201°
2026-04-17 00:15 -27.56401 -59.10490 4982 ft 269 kts 201°
2026-04-17 00:15 -27.58137 -59.11237 6099 ft 272 kts 201°
2026-04-17 00:15 -27.59911 -59.11997 7202 ft 273 kts 201°
2026-04-17 00:16 -27.61707 -59.12733 8281 ft 276 kts 197°
2026-04-17 00:16 -27.63624 -59.13031 9364 ft 281 kts 186°
2026-04-17 00:16 -27.65601 -59.13123 10334 ft 291 kts 186°
2026-04-17 00:16 -27.67701 -59.13249 10906 ft 311 kts 186°
2026-04-17 00:17 -27.69922 -59.13387 11566 ft 328 kts 187°
2026-04-17 00:17 -27.72256 -59.13536 12221 ft 343 kts 187°
2026-04-17 00:17 -27.74678 -59.13693 12999 ft 354 kts 187°
2026-04-17 00:17 -27.77162 -59.13856 13860 ft 361 kts 187°
2026-04-17 00:18 -27.79686 -59.14022 14755 ft 365 kts 187°
2026-04-17 00:18 -27.82236 -59.14192 15697 ft 369 kts 187°
2026-04-17 00:18 -27.84821 -59.14364 16625 ft 374 kts 188°
2026-04-17 00:18 -27.87433 -59.14538 17495 ft 378 kts 188°
2026-04-17 00:19 -27.90075 -59.14713 18307 ft 382 kts 188°
2026-04-17 00:19 -27.92744 -59.14889 19026 ft 385 kts 188°
2026-04-17 00:19 -27.95431 -59.15066 19727 ft 389 kts 188°
2026-04-17 00:19 -27.98141 -59.15244 20437 ft 391 kts 189°
2026-04-17 00:20 -28.00834 -59.15421 21127 ft 394 kts 189°
2026-04-17 00:20 -28.03585 -59.15601 21823 ft 397 kts 189°
2026-04-17 00:20 -28.06356 -59.15781 22487 ft 400 kts 189°
2026-04-17 00:20 -28.09142 -59.15963 23137 ft 403 kts 189°
2026-04-17 00:21 -28.11949 -59.16145 23714 ft 405 kts 190°
2026-04-17 00:21 -28.14779 -59.16329 24206 ft 408 kts 190°
2026-04-17 00:21 -28.17621 -59.16512 24677 ft 410 kts 190°
2026-04-17 00:21 -28.20481 -59.16697 25159 ft 413 kts 190°
2026-04-17 00:22 -28.25225 -59.17002 25961 ft 416 kts 190°
2026-04-17 00:22 -28.28128 -59.17189 26436 ft 419 kts 190°
2026-04-17 00:22 -28.31043 -59.17376 26889 ft 421 kts 190°
2026-04-17 00:23 -28.33977 -59.17564 27327 ft 423 kts 190°
2026-04-17 00:23 -28.36925 -59.17637 27954 ft 421 kts 185°
2026-04-17 00:23 -28.39827 -59.17432 28863 ft 414 kts 183°
2026-04-17 00:23 -28.42679 -59.17209 29630 ft 408 kts 184°
2026-04-17 00:24 -28.45520 -59.16994 30039 ft 409 kts 184°
2026-04-17 00:24 -28.48368 -59.16778 30283 ft 414 kts 184°
2026-04-17 00:24 -28.51246 -59.16562 30563 ft 416 kts 184°
2026-04-17 00:24 -28.54139 -59.16344 30900 ft 417 kts 184°
2026-04-17 00:25 -28.57062 -59.16125 31079 ft 423 kts 184°
2026-04-17 00:25 -28.59966 -59.15905 31416 ft 424 kts 184°
2026-04-17 00:25 -28.62919 -59.15683 31639 ft 428 kts 184°
2026-04-17 00:25 -28.65897 -59.15457 31962 ft 429 kts 184°
2026-04-17 00:26 -28.68886 -59.15230 32338 ft 429 kts 184°
2026-04-17 00:26 -28.71863 -59.15004 32705 ft 429 kts 184°
2026-04-17 00:26 -28.74846 -59.14778 33074 ft 429 kts 184°
2026-04-17 00:26 -28.77828 -59.14552 33431 ft 428 kts 184°
2026-04-17 00:27 -28.80802 -59.14326 33758 ft 428 kts 184°
2026-04-17 00:27 -28.83772 -59.14101 34039 ft 428 kts 184°
2026-04-17 00:27 -28.86743 -59.13876 34297 ft 428 kts 184°
2026-04-17 00:27 -28.89720 -59.13650 34543 ft 428 kts 184°
2026-04-17 00:28 -28.92659 -59.13426 34781 ft 428 kts 184°
2026-04-17 00:28 -28.95632 -59.13201 35009 ft 428 kts 184°
2026-04-17 00:28 -28.98607 -59.12974 35238 ft 429 kts 184°
2026-04-17 00:28 -29.01586 -59.12747 35473 ft 429 kts 184°
2026-04-17 00:29 -29.04568 -59.12520 35702 ft 429 kts 184°
2026-04-17 00:29 -29.07536 -59.12292 35987 ft 427 kts 184°
2026-04-17 00:29 -29.13487 -59.11839 35939 ft 427 kts 184°
2026-04-17 00:30 -29.19410 -59.11386 35937 ft 426 kts 184°
2026-04-17 00:30 -29.25331 -59.10933 35933 ft 426 kts 184°
2026-04-17 00:31 -29.31214 -59.10483 35872 ft 425 kts 184°
2026-04-17 00:31 -29.37110 -59.10028 35870 ft 425 kts 182°
2026-04-17 00:32 -29.40052 -59.09378 35879 ft 439 kts 168°
2026-04-17 00:32 -29.42822 -59.07778 35917 ft 453 kts 154°
2026-04-17 00:32 -29.48085 -59.03719 35870 ft 455 kts 153°
2026-04-17 00:33 -29.53335 -58.99669 35873 ft 455 kts 153°
2026-04-17 00:33 -29.58590 -58.95620 35874 ft 455 kts 153°
2026-04-17 00:34 -29.63850 -58.91566 35869 ft 455 kts 153°
2026-04-17 00:34 -29.69385 -58.88430 35885 ft 431 kts 179°
2026-04-17 00:35 -29.75280 -58.87881 35856 ft 424 kts 184°
2026-04-17 00:35 -29.81130 -58.87446 35868 ft 423 kts 184°
2026-04-17 00:36 -29.87001 -58.87002 35869 ft 423 kts 184°
2026-04-17 00:36 -29.92878 -58.86552 35869 ft 423 kts 184°
2026-04-17 00:37 -29.98752 -58.86099 35863 ft 422 kts 184°
2026-04-17 00:37 -30.04616 -58.85646 35868 ft 422 kts 184°
2026-04-17 00:38 -30.09486 -58.85270 35866 ft 422 kts 184°
2026-04-17 00:38 -30.15344 -58.84816 35861 ft 422 kts 184°
2026-04-17 00:39 -30.22145 -58.84288 35866 ft 421 kts 184°
2026-04-17 00:39 -30.27048 -58.83907 35860 ft 421 kts 183°
2026-04-17 00:40 -30.32896 -58.83451 35861 ft 421 kts 183°
2026-04-17 00:40 -30.38740 -58.82996 35865 ft 421 kts 183°
2026-04-17 00:41 -30.44587 -58.82539 35868 ft 421 kts 183°
2026-04-17 00:41 -30.50386 -58.82086 35865 ft 420 kts 183°
2026-04-17 00:42 -30.56224 -58.81575 35863 ft 421 kts 182°
2026-04-17 00:42 -30.62061 -58.81060 35861 ft 420 kts 182°
2026-04-17 00:43 -30.67893 -58.80547 35861 ft 420 kts 182°
2026-04-17 00:43 -30.73720 -58.80035 35859 ft 420 kts 182°
2026-04-17 00:44 -30.79546 -58.79523 35855 ft 419 kts 182°
2026-04-17 00:44 -30.85371 -58.79010 35855 ft 419 kts 182°
2026-04-17 00:45 -30.91195 -58.78497 35861 ft 420 kts 182°
2026-04-17 00:45 -30.97022 -58.78007 35854 ft 419 kts 182°
2026-04-17 00:46 -31.02844 -58.77552 35860 ft 419 kts 182°
2026-04-17 00:46 -31.08671 -58.77092 35856 ft 419 kts 182°
2026-04-17 00:47 -31.14496 -58.76632 35852 ft 419 kts 182°
2026-04-17 00:47 -31.20276 -58.76174 35857 ft 419 kts 182°
2026-04-17 00:48 -31.26099 -58.75710 35856 ft 419 kts 182°
2026-04-17 00:48 -31.31917 -58.75248 35848 ft 419 kts 182°
2026-04-17 00:49 -31.37733 -58.74784 35847 ft 419 kts 182°
2026-04-17 00:49 -31.43557 -58.74320 35850 ft 419 kts 181°
2026-04-17 00:50 -31.49392 -58.73853 35848 ft 420 kts 181°
2026-04-17 00:50 -31.55214 -58.73388 35843 ft 420 kts 181°
2026-04-17 00:51 -31.61050 -58.72921 35846 ft 420 kts 181°
2026-04-17 00:51 -31.66842 -58.72456 35848 ft 419 kts 181°
2026-04-17 00:52 -31.72676 -58.71988 35843 ft 420 kts 181°
2026-04-17 00:52 -31.78513 -58.71519 35842 ft 420 kts 181°
2026-04-17 00:53 -31.84301 -58.71054 35841 ft 420 kts 181°
2026-04-17 00:53 -31.90129 -58.70584 35843 ft 420 kts 181°
2026-04-17 00:54 -31.95977 -58.70112 35838 ft 420 kts 180°
2026-04-17 00:54 -32.01819 -58.69640 35835 ft 420 kts 180°
2026-04-17 00:55 -32.07653 -58.69169 35836 ft 420 kts 180°
2026-04-17 00:55 -32.13453 -58.68699 35834 ft 420 kts 180°
2026-04-17 00:56 -32.19298 -58.68224 35830 ft 421 kts 180°
2026-04-17 00:56 -32.25138 -58.67750 35829 ft 421 kts 180°
2026-04-17 00:57 -32.30996 -58.67274 35831 ft 421 kts 180°
2026-04-17 00:57 -32.36844 -58.66793 35832 ft 421 kts 180°
2026-04-17 00:58 -32.42658 -58.66308 35827 ft 421 kts 180°
2026-04-17 00:58 -32.48505 -58.65820 35825 ft 421 kts 180°
2026-04-17 00:59 -32.54353 -58.65331 35825 ft 421 kts 180°
2026-04-17 00:59 -32.60202 -58.64842 35821 ft 421 kts 180°
2026-04-17 01:00 -32.66051 -58.64352 35820 ft 421 kts 179°
2026-04-17 01:00 -32.71902 -58.63863 35816 ft 422 kts 179°
2026-04-17 01:01 -32.77763 -58.63371 35761 ft 423 kts 179°
2026-04-17 01:01 -32.80719 -58.63123 35344 ft 425 kts 179°
2026-04-17 01:01 -32.83653 -58.62876 35068 ft 423 kts 179°
2026-04-17 01:02 -32.86571 -58.62631 34425 ft 426 kts 179°
2026-04-17 01:02 -32.89518 -58.62382 33866 ft 424 kts 179°
2026-04-17 01:02 -32.92451 -58.62134 33244 ft 420 kts 179°
2026-04-17 01:02 -32.95352 -58.61888 32721 ft 416 kts 179°
2026-04-17 01:03 -32.98238 -58.61645 32173 ft 415 kts 179°
2026-04-17 01:03 -33.01119 -58.61517 31613 ft 413 kts 186°
2026-04-17 01:03 -33.03984 -58.61804 31079 ft 414 kts 188°
2026-04-17 01:03 -33.06856 -58.62134 30513 ft 415 kts 188°
2026-04-17 01:04 -33.09734 -58.62464 29966 ft 416 kts 188°
2026-04-17 01:04 -33.12617 -58.62798 29382 ft 416 kts 188°
2026-04-17 01:04 -33.15497 -58.63134 28852 ft 418 kts 188°
2026-04-17 01:04 -33.18405 -58.63474 28298 ft 418 kts 188°
2026-04-17 01:05 -33.21259 -58.63807 27749 ft 416 kts 188°
2026-04-17 01:05 -33.24131 -58.64144 27201 ft 413 kts 188°
2026-04-17 01:05 -33.26981 -58.64478 26652 ft 410 kts 188°
2026-04-17 01:05 -33.29812 -58.64810 26107 ft 407 kts 188°
2026-04-17 01:06 -33.32621 -58.65141 25583 ft 404 kts 188°
2026-04-17 01:06 -33.35404 -58.65468 25021 ft 401 kts 188°
2026-04-17 01:06 -33.38173 -58.65793 24501 ft 398 kts 188°
2026-04-17 01:06 -33.40928 -58.66117 23971 ft 396 kts 188°
2026-04-17 01:07 -33.43660 -58.66439 23449 ft 393 kts 188°
2026-04-17 01:07 -33.46336 -58.66753 22902 ft 389 kts 188°
2026-04-17 01:07 -33.49021 -58.67068 22409 ft 386 kts 188°
2026-04-17 01:07 -33.51682 -58.67381 21907 ft 383 kts 188°
2026-04-17 01:08 -33.54330 -58.67693 21399 ft 381 kts 188°
2026-04-17 01:08 -33.56961 -58.68002 20887 ft 378 kts 188°
2026-04-17 01:08 -33.59574 -58.68310 20390 ft 376 kts 188°
2026-04-17 01:08 -33.62168 -58.68614 19880 ft 373 kts 188°
2026-04-17 01:09 -33.64744 -58.68918 19394 ft 370 kts 188°
2026-04-17 01:09 -33.67297 -58.69219 18900 ft 368 kts 188°
2026-04-17 01:09 -33.69839 -58.69518 18426 ft 366 kts 188°
2026-04-17 01:09 -33.72361 -58.69814 17911 ft 363 kts 188°
2026-04-17 01:10 -33.74865 -58.70108 17452 ft 359 kts 188°
2026-04-17 01:10 -33.77340 -58.70398 16967 ft 356 kts 188°
2026-04-17 01:10 -33.79797 -58.70688 16502 ft 353 kts 188°
2026-04-17 01:10 -33.82237 -58.70975 16032 ft 351 kts 188°
2026-04-17 01:11 -33.84658 -58.71257 15573 ft 348 kts 188°
2026-04-17 01:11 -33.87061 -58.71540 15104 ft 346 kts 188°
2026-04-17 01:11 -33.89443 -58.71821 14651 ft 343 kts 188°
2026-04-17 01:11 -33.91787 -58.72096 14193 ft 334 kts 188°
2026-04-17 01:12 -33.94050 -58.72344 13760 ft 327 kts 187°
2026-04-17 01:12 -33.96295 -58.72563 13301 ft 319 kts 187°
2026-04-17 01:12 -33.98481 -58.72782 12906 ft 311 kts 187°
2026-04-17 01:12 -34.00610 -58.72995 12490 ft 304 kts 187°
2026-04-17 01:13 -34.02694 -58.73205 12093 ft 297 kts 187°
2026-04-17 01:13 -34.04736 -58.73411 11703 ft 291 kts 187°
2026-04-17 01:13 -34.06738 -58.73612 11321 ft 286 kts 187°
2026-04-17 01:13 -34.08708 -58.73811 10938 ft 281 kts 187°
2026-04-17 01:14 -34.10643 -58.74006 10573 ft 277 kts 186°
2026-04-17 01:14 -34.12551 -58.74199 10208 ft 273 kts 186°
2026-04-17 01:14 -34.14438 -58.74391 9853 ft 271 kts 186°
2026-04-17 01:14 -34.16313 -58.74581 9477 ft 269 kts 186°
2026-04-17 01:15 -34.18173 -58.74768 9138 ft 266 kts 186°
2026-04-17 01:15 -34.20016 -58.74956 8791 ft 265 kts 186°
2026-04-17 01:15 -34.21854 -58.75143 8438 ft 264 kts 186°
2026-04-17 01:15 -34.23664 -58.75327 8311 ft 258 kts 186°
2026-04-17 01:16 -34.25446 -58.75508 7948 ft 261 kts 186°
2026-04-17 01:16 -34.27246 -58.75691 7591 ft 258 kts 186°
2026-04-17 01:16 -34.29008 -58.75869 7241 ft 250 kts 186°
2026-04-17 01:16 -34.30713 -58.76042 6923 ft 241 kts 186°
2026-04-17 01:17 -34.32347 -58.75857 6587 ft 238 kts 160°
2026-04-17 01:17 -34.33669 -58.74681 6315 ft 236 kts 140°
2026-04-17 01:17 -34.34805 -58.73272 5979 ft 232 kts 139°
2026-04-17 01:17 -34.35921 -58.71890 5669 ft 226 kts 140°
2026-04-17 01:18 -34.37008 -58.70541 5383 ft 221 kts 140°
2026-04-17 01:18 -34.38076 -58.69215 5085 ft 218 kts 140°
2026-04-17 01:18 -34.39116 -58.67921 4827 ft 210 kts 140°
2026-04-17 01:18 -34.40116 -58.66681 4530 ft 201 kts 142°
2026-04-17 01:19 -34.41289 -58.65936 4201 ft 186 kts 167°
2026-04-17 01:19 -34.42504 -58.65442 3896 ft 185 kts 156°
2026-04-17 01:19 -34.43368 -58.64288 3573 ft 193 kts 126°
2026-04-17 01:19 -34.44014 -58.62869 3267 ft 190 kts 129°
2026-04-17 01:20 -34.44771 -58.61581 2967 ft 186 kts 133°
2026-04-17 01:20 -34.45511 -58.60293 2656 ft 186 kts 130°
2026-04-17 01:20 -34.46211 -58.58991 2349 ft 184 kts 130°
2026-04-17 01:20 -34.46939 -58.57714 2042 ft 184 kts 131°
2026-04-17 01:21 -34.47654 -58.56437 1761 ft 180 kts 130°
2026-04-17 01:21 -34.48317 -58.55236 1724 ft 162 kts 131°
2026-04-17 01:21 -34.48933 -58.54145 1691 ft 153 kts 131°
2026-04-17 01:21 -34.49504 -58.53112 1692 ft 147 kts 131°
2026-04-17 01:22 -34.50070 -58.52105 1699 ft 144 kts 132°
2026-04-17 01:22 -34.50624 -58.51106 1700 ft 143 kts 132°
2026-04-17 01:22 -34.51195 -58.50082 1480 ft 146 kts 131°
2026-04-17 01:22 -34.51750 -58.49087 1338 ft 139 kts 131°
2026-04-17 01:23 -34.52262 -58.48118 1219 ft 136 kts 131°
2026-04-17 01:23 -34.52787 -58.47161 971 ft 136 kts 134°
2026-04-17 01:23 -34.53346 -58.46226 708 ft 136 kts 129°
2026-04-17 01:23 -34.53832 -58.45311 581 ft 121 kts 127°
2026-04-17 01:24 -34.54298 -58.44457 409 ft 124 kts 131°
2026-04-17 01:24 -34.54798 -58.43570 288 ft 132 kts 126°
2026-04-17 01:24 -34.55323 -58.42645 91 ft 132 kts 127°
2026-04-17 01:24 -34.55813 -58.41774 27 ft 111 kts 127°
2026-04-17 01:25 -34.56157 -58.41158 27 ft 64 kts 123°
2026-04-17 01:25 -34.56323 -58.40858 26 ft 31 kts 124°
2026-04-17 01:25 -34.56415 -58.40689 26 ft 16 kts 114°
2026-04-17 01:25 -34.56346 -58.40664 25 ft 14 kts 332°
2026-04-17 01:26 -34.56269 -58.40741 28 ft 15 kts 317°
2026-04-17 01:26 -34.56191 -58.40832 26 ft 14 kts 315°
2026-04-17 01:26 -34.56143 -58.40941 28 ft 16 kts 300°
2026-04-17 01:26 -34.56077 -58.41039 26 ft 12 kts 328°
2026-04-17 01:27 -34.55987 -58.41062 26 ft 14 kts 329°
2026-04-17 01:27 -34.55916 -58.41152 26 ft 14 kts 310°
2026-04-17 01:27 -34.55850 -58.41252 26 ft 16 kts 304°
2026-04-17 01:27 -34.55792 -58.41361 26 ft 15 kts 302°
2026-04-17 01:28 -34.55748 -58.41449 30 ft 9 kts 299°
2026-04-17 01:28 -34.55718 -58.41491 29 ft 4 kts 352°
2026-04-17 01:28 -34.55701 -58.41487 27 ft 2 kts 11°
2026-04-17 01:28 -34.55691 -58.41485 28 ft 1 kts 12°
2026-04-17 01:29 -34.55687 -58.41483 27 ft 1 kts 13°
2026-04-17 01:29 -34.55686 -58.41483 27 ft 0 kts 13°